Total_Precipitation_Accumulation
0.13 0.32 0.65 1.08 2.18 2.45 1.92 1.08 0.70 0.55 0.53 0.62 0.60 0.59 0.81 1.14 1.57 2.33 1.82 1.09 0.74 0.74 0.94 1.25 1.42 1.45 1.41 1.25 1.37 1.53 1.57 1.73 1.99 2.26 2.59 2.63 2.75 2.88 2.97 3.25 3.54 3.70 3.63 3.47 3.34 3.12 2.84 2.58 2.20
0.27 0.61 0.90 1.36 2.35 2.55 1.94 0.99 0.65 0.49 0.53 0.63 0.71 0.67 0.63 0.75 0.69 0.89 1.23 1.20 0.81 0.82 0.98 1.17 1.25 1.29 1.28 1.19 1.34 1.54 1.62 1.75 1.95 2.14 2.38 2.49 2.60 2.78 3.05 3.24 3.22 3.30 3.26 3.16 2.97 2.64 2.38 2.11 1.76
0.46 0.72 1.03 1.52 1.65 1.63 1.39 0.85 0.59 0.52 0.52 0.67 0.72 0.56 0.61 0.87 0.76 0.90 1.05 0.99 0.83 0.83 0.97 1.18 1.16 1.16 1.19 1.22 1.45 1.59 1.68 1.81 1.91 2.09 2.30 2.41 2.50 2.64 2.95 3.08 3.00 3.05 2.96 2.69 2.45 2.27 2.04 1.76 1.57
0.53 0.78 0.95 1.10 0.84 0.66 0.61 0.57 0.54 0.57 0.60 0.59 0.66 0.71 0.71 0.84 0.80 0.88 0.92 0.83 0.76 0.78 0.88 1.16 1.15 1.04 1.12 1.34 1.49 1.51 1.63 1.75 1.85 2.03 2.19 2.33 2.35 2.51 2.75 2.73 2.67 2.63 2.54 2.39 2.32 2.14 1.87 1.58 1.39
0.48 0.82 1.00 0.76 0.48 0.47 0.51 0.52 0.57 0.65 0.65 0.73 0.85 0.96 1.10 1.01 0.81 0.94 1.04 0.96 0.84 0.85 0.87 1.03 1.09 1.00 1.10 1.25 1.38 1.43 1.50 1.68 1.82 2.03 2.18 2.25 2.29 2.39 2.42 2.33 2.30 2.34 2.23 2.09 2.01 1.88 1.69 1.52 1.40
0.62 0.82 0.72 0.50 0.38 0.41 0.49 0.51 0.53 0.59 0.67 0.86 0.94 0.94 1.22 1.20 0.93 0.99 1.03 1.23 1.08 0.78 0.73 0.85 1.06 1.03 1.08 1.21 1.36 1.48 1.47 1.61 1.81 1.90 2.03 2.01 1.94 1.94 1.96 2.08 2.19 2.13 1.96 1.82 1.71 1.58 1.51 1.46 1.42
0.61 0.67 0.48 0.35 0.29 0.33 0.33 0.41 0.54 0.59 0.72 0.85 0.77 0.83 1.25 1.43 1.16 1.06 1.05 1.10 0.97 0.73 0.74 0.81 0.90 0.88 1.03 1.34 1.56 1.64 1.61 1.68 1.72 1.72 1.88 1.87 1.80 1.78 1.78 1.86 1.97 1.87 1.71 1.57 1.52 1.37 1.23 1.12 1.19
0.35 0.37 0.29 0.25 0.21 0.26 0.23 0.26 0.42 0.60 0.69 0.64 0.68 0.96 1.43 1.39 0.98 0.96 1.01 1.07 1.01 0.92 0.89 0.93 0.94 0.87 0.89 1.17 1.56 1.82 1.86 1.80 1.77 1.87 1.96 1.95 1.93 1.88 1.85 1.63 1.68 1.72 1.59 1.55 1.53 1.42 1.18 1.09 1.16
0.22 0.25 0.23 0.17 0.14 0.20 0.21 0.25 0.35 0.51 0.57 0.63 0.81 0.93 1.06 0.90 0.75 0.93 1.13 1.34 1.44 1.25 1.16 1.11 0.98 0.93 0.96 1.08 1.34 1.63 1.89 2.07 2.14 2.18 2.12 2.17 2.22 2.15 2.20 1.88 2.01 1.95 1.79 1.75 1.78 1.64 1.38 1.25 1.23
0.19 0.20 0.21 0.11 0.09 0.15 0.17 0.25 0.41 0.61 0.75 0.99 1.29 1.33 1.08 0.94 0.87 0.99 1.28 1.46 1.75 1.53 1.21 1.19 1.09 1.07 1.06 0.97 1.17 1.48 1.57 1.86 2.12 2.22 2.21 2.45 2.63 2.68 2.28 2.55 2.66 2.47 2.38 2.23 2.22 2.28 1.92 1.53 1.49
0.10 0.10 0.08 0.06 0.06 0.08 0.14 0.21 0.32 0.52 0.90 1.39 1.48 1.29 1.07 1.16 1.19 1.20 1.54 1.66 1.63 1.47 1.49 1.50 1.37 1.36 1.32 1.37 1.24 1.43 1.68 1.95 2.01 2.02 2.25 2.64 2.59 2.54 2.42 2.60 2.99 3.02 2.97 2.83 2.82 2.80 2.33 2.16 2.36
0.06 0.04 0.03 0.05 0.06 0.07 0.09 0.12 0.24 0.49 0.95 1.09 1.06 1.01 1.01 1.22 1.29 1.41 1.76 1.84 1.91 1.79 2.04 2.16 1.89 1.90 1.80 1.59 1.49 1.49 1.63 1.89 2.11 2.37 2.49 2.62 2.90 2.94 2.76 2.78 2.92 3.03 3.13 3.52 3.36 3.19 2.88 2.75 2.59
0.05 0.04 0.03 0.04 0.06 0.10 0.08 0.14 0.31 0.64 0.83 0.71 0.62 0.86 0.96 1.30 1.64 1.87 2.11 2.00 2.32 2.50 2.75 2.94 2.53 2.44 2.33 2.33 2.24 1.95 2.03 2.19 2.39 2.64 2.84 2.88 3.16 3.34 3.30 3.12 3.01 2.79 2.83 3.17 3.43 3.28 3.27 3.13 2.91
0.06 0.05 0.04 0.05 0.07 0.08 0.14 0.25 0.42 0.70 0.64 0.58 0.73 1.15 1.37 1.37 1.68 2.09 2.25 2.38 2.77 3.00 3.18 3.32 3.21 3.25 3.09 2.87 2.92 2.87 2.49 2.59 2.64 2.74 2.84 3.00 3.28 3.71 3.82 3.60 3.42 3.01 2.86 2.92 3.22 3.28 3.53 3.44 3.21
0.09 0.10 0.12 0.12 0.12 0.12 0.18 0.49 0.62 0.71 0.59 0.61 0.85 1.21 1.55 1.50 1.67 1.99 2.21 2.72 3.45 3.83 3.78 3.84 3.81 4.11 4.01 3.62 3.30 3.00 2.81 2.77 3.00 3.06 3.12 3.18 3.43 3.83 3.80 3.57 3.17 2.83 2.79 3.02 3.04 3.04 3.33 3.19 3.07
0.12 0.21 0.32 0.27 0.19 0.18 0.28 0.82 0.89 0.74 0.87 0.94 1.12 1.29 1.57 1.62 1.67 1.92 2.41 3.22 4.11 4.67 4.61 4.41 4.00 4.42 4.48 4.20 4.00 3.60 3.31 3.38 3.39 3.11 3.25 3.18 3.34 3.30 3.38 3.09 2.74 2.74 2.86 3.03 3.23 3.13 3.24 3.28 3.36
0.22 0.29 0.35 0.35 0.25 0.22 0.33 0.97 0.97 0.71 0.98 1.22 1.13 1.27 1.50 1.67 1.82 1.96 2.54 3.41 4.28 5.11 5.34 5.32 5.23 5.01 4.78 4.59 4.45 4.26 4.09 3.81 3.43 3.27 3.36 3.07 2.76 2.58 2.80 2.79 2.75 2.66 2.81 2.88 2.69 3.08 3.37 3.41 3.44
0.26 0.27 0.32 0.36 0.29 0.27 0.41 0.75 0.81 0.82 0.97 1.14 1.12 1.14 1.26 1.54 1.97 2.09 2.41 3.17 4.12 5.04 5.63 5.85 5.95 5.67 5.20 4.73 4.38 4.30 4.06 3.81 3.53 3.31 3.28 2.86 2.64 2.39 2.69 2.70 2.67 2.65 2.80 2.90 3.01 3.31 3.46 3.16 3.11
0.19 0.23 0.31 0.36 0.29 0.32 0.50 0.67 0.76 0.86 1.09 1.24 1.25 1.18 1.23 1.55 2.01 2.18 2.49 2.98 3.79 4.59 5.31 5.48 5.86 5.46 4.84 4.29 3.87 3.76 3.60 3.29 3.17 3.05 3.00 2.90 2.65 2.57 2.83 2.71 2.80 2.62 2.68 2.66 2.74 3.03 3.17 2.81 2.88
0.15 0.21 0.31 0.32 0.24 0.29 0.52 0.81 0.95 1.00 0.99 1.06 1.10 1.14 1.23 1.61 2.09 2.42 2.94 3.35 3.38 3.94 4.68 4.77 4.51 4.36 3.95 3.61 3.46 3.30 3.27 2.93 2.76 2.65 2.78 2.59 2.43 2.54 2.59 2.74 2.58 2.50 2.63 2.61 2.65 2.93 2.91 2.60 2.79
0.17 0.21 0.26 0.25 0.25 0.35 0.58 1.05 1.33 1.18 0.89 0.79 0.84 0.93 1.06 1.40 1.92 2.33 2.75 3.20 3.19 3.59 3.69 3.35 3.23 3.34 3.31 3.16 3.10 3.00 3.02 2.82 2.60 2.48 2.56 2.39 2.21 2.28 2.35 2.32 2.36 2.47 2.21 2.39 2.61 2.77 2.84 2.76 2.67
0.13 0.13 0.13 0.14 0.24 0.48 0.63 1.32 1.68 1.39 1.03 0.83 0.85 1.01 1.07 1.17 1.37 1.65 1.98 2.41 2.62 2.74 2.66 2.64 2.64 2.72 2.93 2.93 2.73 2.58 2.37 2.32 2.31 2.25 2.34 2.38 2.14 2.05 2.08 2.09 2.28 2.37 2.28 2.54 2.24 2.38 2.66 2.88 2.68
0.10 0.09 0.10 0.17 0.25 0.51 0.71 1.11 1.59 1.50 1.36 1.15 1.00 1.03 0.98 0.99 1.06 1.20 1.29 1.51 1.79 2.06 2.15 2.15 2.47 2.60 2.62 2.60 2.58 2.66 2.42 2.31 2.31 2.46 2.70 2.63 2.29 1.95 1.80 1.93 2.15 2.29 2.33 2.41 2.33 2.43 2.43 2.49 2.53
0.09 0.10 0.19 0.36 0.52 0.93 0.90 1.01 1.47 1.32 1.17 1.15 0.98 0.83 0.78 0.80 0.84 1.02 1.06 1.09 1.23 1.38 1.54 1.69 2.02 2.26 2.32 2.27 2.28 2.36 2.43 2.47 2.32 2.32 2.42 2.37 2.23 2.02 1.83 1.87 2.12 2.20 2.28 2.33 2.36 2.32 2.25 2.33 2.42
0.09 0.15 0.46 0.90 1.21 1.39 0.94 0.91 1.15 0.96 0.96 1.06 0.84 0.58 0.54 0.63 0.67 0.85 0.85 0.88 1.00 1.04 1.16 1.40 1.65 1.83 1.93 1.99 2.07 2.15 2.37 2.36 2.18 2.02 2.12 2.16 2.05 1.95 1.93 1.89 2.20 2.33 2.31 2.25 2.35 2.33 2.30 2.41 2.49
0.10 0.12 0.31 0.57 0.76 0.95 0.97 1.30 1.23 0.81 0.77 0.69 0.51 0.40 0.38 0.54 0.61 0.66 0.61 0.64 0.78 0.86 0.98 1.17 1.34 1.45 1.58 1.78 1.98 1.98 2.13 2.00 1.91 2.09 1.99 1.89 1.71 1.79 2.04 2.15 2.17 2.18 2.21 2.19 2.46 2.30 2.32 2.41 2.43
0.08 0.08 0.12 0.22 0.32 0.64 1.06 1.41 1.20 0.77 0.71 0.57 0.42 0.35 0.40 0.44 0.58 0.58 0.53 0.54 0.58 0.65 0.77 1.02 1.34 1.37 1.38 1.48 1.70 1.79 1.79 1.81 1.94 2.17 2.10 1.92 1.86 1.77 1.98 2.13 2.22 2.16 2.16 2.32 2.56 2.50 2.52 2.62 2.51
0.08 0.09 0.11 0.19 0.33 0.58 0.96 1.33 1.44 1.18 0.85 0.59 0.51 0.48 0.56 0.57 0.66 0.70 0.59 0.60 0.61 0.61 0.74 0.88 1.08 1.30 1.45 1.41 1.40 1.41 1.67 1.74 1.88 1.99 1.91 1.89 1.90 1.94 2.03 2.03 2.06 2.03 2.02 2.18 2.56 2.56 2.57 2.77 2.72
0.10 0.10 0.11 0.15 0.24 0.41 0.80 1.05 0.95 0.94 0.74 0.60 0.61 0.71 0.59 0.56 0.63 0.71 0.56 0.56 0.59 0.67 0.75 0.88 1.02 1.28 1.43 1.31 1.31 1.42 1.59 1.71 1.78 1.95 1.94 1.90 1.93 2.03 2.04 2.04 2.04 1.96 1.86 1.99 2.22 2.32 2.52 2.66 2.72
0.11 0.12 0.13 0.17 0.20 0.23 0.43 0.72 0.59 0.66 0.66 0.74 0.78 0.73 0.66 0.66 0.69 0.75 0.70 0.79 0.82 0.92 0.94 0.98 1.06 1.23 1.33 1.32 1.36 1.43 1.54 1.63 1.72 1.82 1.93 1.98 1.97 2.07 2.11 2.11 2.06 1.89 1.89 2.00 2.10 2.23 2.44 2.57 2.64